sat.trackr.live / text

‹ back to catalog

STARLINK-3982

NORAD 52614 · 2022-052S

PAYLOAD ACTIVE UNKNOWN

§ Identity

Operator
Country
US
Launch date
2022-05-14
Launch site
AFETR
Launch vehicle
Mass (kg)
RCS (m²)

Purposes: comms

External: N2YO · Heavens-Above · Gunter

§ Orbital elements

Epoch: 2026-05-24T22:10:13.074816Z

Period
92.75 min
Inclination
53.2075°
Eccentricity
0.0001103
Mean motion
15.52478294 rev/d
Perigee alt
408.7 km
Apogee alt
410.2 km
Semi-major
6,787.6 km
B*
8.6689e-4
RAAN
225.4060°
Arg perigee
170.4651°
Mean anomaly
189.6382°
Rev number
22,337

§ Raw data

STARLINK-39821 52614U 22052S   26144.92376244  .00053876  00000+0  86689-3 0  99912 52614  53.2075 225.4060 0001103 170.4651 189.6382 15.52478294223371

JSON: /api/v1/satellites/52614 · /tle

For live sub-satellite position, see the globe view (requires WebGL).

§ Visibility from observer

Set your observer location to see the next 7 days of passes ≥ 10°. The values pass through the URL so the page stays shareable.

No JS? Fill the form by hand. The geolocation button needs JavaScript.